Weather in Seinäjoki

Finland     62°47′53″N   22°52′16″E
В апреле 2022 года жителям России запретили посещать сайт meteo.paraplan.net по решению Генеральной прокуратуры. Аудитория сайта уменьшилась в 10 раз. Владельцы сайта не видят смысла в поддержке погодного сервера в таких условиях. Сайт будет закрыт в октябре.
temp.,
°C
wind,
m/s
gust,
m/s
humid.,
%
clouds,
%
prec.,
mm/h
press.,
hPa
HPBL,
m
3 october, mon
mon300:00+8s2384100 0.0 101177
03:00+8ssw1287100 0.0 101156
06:00+5ssw1195100 0.0 101213
09:00+6ssw1290100 0.0 101349
12:00+10sw1173100 0.0 1013293
15:00+12nnw0167100 0.0 1013690
18:00+9nne1181100 0.0 101310
21:00+6nne119482 0.0 101310
4 october, tue
tue400:00+5nne119665 0.0 101313
03:00+4nne2296100 0.0 101132
06:00+4n249697 0.0 101172
09:00+4nne26935 0.0 1010168
12:00+10nne24695 0.0 1010523
15:00+11nne24585 0.0 10091005
18:00+9ne11755 0.0 100915
21:00+5ese11875 0.0 101010
5 october, wed
wed500:00+3sse24955 0.0 101068
03:00+3sse269719 0.0 1009137
06:00+3sse31094100 0.0 1007259
09:00+5se41190100 0.5 1005390
12:00+5se51495100 4.6 1004535
15:00+6se41195100 6.4 1003625
18:00+7se3997100 0.1 1003408
21:00+7sse3799100 0.1 1002262
6 october, thu
thu600:00+8s399799 0.0 1001404
03:00+8sse51595100 0.0 998534
06:00+12s71692100 0.1 9931255
09:00+11sw7148331 1.9 9911240
12:00+11sw7137658 0.1 9941357
15:00+11sw6117181 0.3 9941238
18:00+10wsw5137047 0.0 9951275
21:00+9wsw412656 0.0 997657
7 october, fri
fri700:00+10wsw41277100 0.2 997659
03:00+9wsw41091100 1.3 997698
06:00+7wsw5148695 0.1 1000889
09:00+7wsw412804 0.1 1002668
12:00+10wsw5107084 0.0 10031031
15:00+11sw5126831 0.0 10021166
18:00+10ssw51492100 0.8 9991260
21:00+11sw51494100 5.3 9961228